Weather reports worldwide

Advertisment
Fair Isle, United Kingdom (3008): temperature & dewpoint: 15.02.2017 14:00:00 - 21.02.2017 14:00:00 (GMT)Fair Isle, United Kingdom (3008): temperature -20cm & temperature -100cm: 15.02.2017 14:00:00 - 21.02.2017 14:00:00 (GMT)Fair Isle, United Kingdom (3008): wind speed & gusts: 15.02.2017 14:00:00 - 21.02.2017 14:00:00 (GMT)Fair Isle, United Kingdom (3008): wind direction: 15.02.2017 14:00:00 - 21.02.2017 14:00:00 (GMT)Fair Isle, United Kingdom (3008): reduced air pressure: 15.02.2017 14:00:00 - 21.02.2017 14:00:00 (GMT)Fair Isle, United Kingdom (3008): visibility: 15.02.2017 14:00:00 - 21.02.2017 14:00:00 (GMT)Fair Isle, United Kingdom (3008): precipitation: 15.02.2017 14:00:00 - 21.02.2017 14:00:00 (GMT)
Date & Time tt [°C] td [°C] tt -20cm [°C] tt -100cm [°C] ff [km/h] ff [kn] fx [km/h] fx [kn] dd ppp [hPa] vv [km] rr [mm]
21.02.2017 14:00:00 - - - - - - - - - - - -
21.02.2017 13:00:00 6,0 4,5 - - 44 24 63 34 S 996,0 7 0,6
21.02.2017 12:00:00 6,3 4,7 - - 37 20 55 30 SSW 997,9 7 0,2
21.02.2017 11:00:00 6,7 5,2 - - 34 18 48 26 SSW 999,4 9 0,2
21.02.2017 10:00:00 6,6 4,3 - - 35 19 - - SW 1000,5 16 0,0
21.02.2017 09:00:00 6,7 3,4 6,7 6,4 28 15 - - WSW 1001,3 14 0,0
21.02.2017 08:00:00 6,8 2,7 - - 26 14 48 26 W 1001,9 13 0,0
21.02.2017 07:00:00 6,7 1,8 - - 34 18 59 32 W 1001,8 15 0,0
21.02.2017 06:00:00 6,7 0,8 - - 42 23 65 35 W 1001,7 18 0,0
21.02.2017 05:00:00 6,6 2,6 - - 42 23 74 40 W 1001,5 13 0,0
21.02.2017 04:00:00 6,4 2,4 - - 46 25 81 44 W 1001,2 13 0,0
21.02.2017 03:00:00 6,6 2,2 - - 55 30 85 46 W 1001,0 12 0,0
21.02.2017 02:00:00 6,6 2,1 - - 52 28 78 42 W 1000,6 12 0,0
21.02.2017 01:00:00 6,8 2,7 - - 44 24 87 47 W 1000,5 12 0,0
21.02.2017 00:00:00 5,4 1,7 - - 48 26 83 45 W 1000,2 15 0,0
20.02.2017 23:00:00 5,8 1,5 - - 48 26 87 47 W 999,8 15 0,0
20.02.2017 22:00:00 6,7 2,8 - - 44 24 85 46 W 999,8 12 0,0
20.02.2017 21:00:00 7,0 2,3 - - 46 25 91 49 W 999,6 12 0,0
20.02.2017 20:00:00 6,6 3,3 - - 41 22 85 46 W 999,7 10 0,6
20.02.2017 19:00:00 6,9 2,3 - - 55 30 96 52 W 999,6 12 0,2
20.02.2017 18:00:00 6,0 1,7 - - 59 32 89 48 WNW 999,2 15 0,0
20.02.2017 17:00:00 6,9 2,9 - - 55 30 81 44 W 998,0 13 0,2
20.02.2017 16:00:00 7,5 5,6 - - 48 26 74 40 W 997,8 9 0,0
20.02.2017 15:00:00 8,3 5,6 - - 44 24 68 37 W 998,0 11 0,0
20.02.2017 14:00:00 8,7 6,4 - - 35 19 70 38 W 997,8 11 0,0
20.02.2017 13:00:00 8,3 7,0 - - 42 23 65 35 W 997,8 14 0,0
20.02.2017 12:00:00 8,2 7,3 - - 37 20 68 37 W 997,7 12 0,0
20.02.2017 11:00:00 7,7 7,5 - - 44 24 67 36 W 996,9 18 0,2
20.02.2017 10:00:00 7,8 7,8 - - 29 16 55 30 WNW 996,3 15 0,4
20.02.2017 09:00:00 8,3 8,3 6,7 6,2 24 13 - - W 995,1 2,9 0,0
20.02.2017 08:00:00 8,1 8,1 - - 28 15 48 26 WSW 995,1 4,4 0,2
20.02.2017 07:00:00 8,1 8,1 - - 35 19 50 27 WSW 996,1 3,5 1,0
20.02.2017 06:00:00 8,0 8,0 - - 31 17 - - WSW 997,2 3,6 2,4
20.02.2017 05:00:00 8,1 8,1 - - 34 18 48 26 WSW 998,1 1,6 1,0
20.02.2017 04:00:00 8,0 8,0 - - 35 19 54 29 WSW 999,0 0,6 0,0
20.02.2017 03:00:00 8,0 8,0 - - 29 16 55 30 W 999,9 3,6 0,0
20.02.2017 02:00:00 8,0 8,0 - - 31 17 52 28 W 1000,5 8 0,0
20.02.2017 01:00:00 8,3 8,3 - - 31 17 65 35 W 1001,0 3,6 0,0
20.02.2017 00:00:00 8,4 8,4 - - 34 18 65 35 W 1001,0 4,0 0,2
19.02.2017 23:00:00 8,7 8,7 - - 41 22 61 33 W 1000,7 1,4 0,0
19.02.2017 22:00:00 8,8 8,8 - - 41 22 61 33 W 1000,7 4,5 0,2
19.02.2017 21:00:00 8,9 8,8 - - 46 25 67 36 WSW 1000,6 3,7 0,0
19.02.2017 20:00:00 8,8 8,7 - - 48 26 74 40 WSW 1001,1 5 0,4
19.02.2017 19:00:00 8,6 8,5 - - 52 28 68 37 SW 1002,0 8 1,4
19.02.2017 18:00:00 7,9 7,6 - - 37 20 61 33 SW 1003,2 2,6 0,8
19.02.2017 17:00:00 8,2 7,7 - - 41 22 65 35 SW 1004,4 10 0,4
19.02.2017 16:00:00 8,1 7,6 - - 42 23 57 31 WSW 1005,6 12 0,0
19.02.2017 15:00:00 7,9 6,9 - - 41 22 59 32 WSW 1006,9 13 0,0
19.02.2017 14:00:00 7,6 6,9 - - 39 21 55 30 WSW 1008,0 16 0,0
19.02.2017 13:00:00 7,7 6,6 - - 37 20 55 30 WSW 1008,6 13 0,0
19.02.2017 12:00:00 7,8 6,8 - - 31 17 50 27 WSW 1009,3 13 0,0
19.02.2017 11:00:00 7,4 6,8 - - 34 18 52 28 W 1009,8 5 0,0
19.02.2017 10:00:00 7,3 6,4 - - 31 17 48 26 W 1009,5 21 0,0
19.02.2017 09:00:00 7,6 6,5 6,4 6,2 24 13 52 28 W 1009,4 15 0,0
19.02.2017 08:00:00 7,1 6,3 - - 29 16 50 27 W 1009,2 21 0,0
19.02.2017 07:00:00 7,1 6,5 - - 31 17 50 27 W 1008,8 17 0,0
19.02.2017 06:00:00 7,2 6,7 - - 31 17 50 27 W 1008,3 14 0,0
19.02.2017 05:00:00 7,2 6,7 - - 26 14 50 27 W 1008,0 19 0,2
19.02.2017 04:00:00 7,3 6,8 - - 24 13 - - W 1007,5 18 0,0
19.02.2017 03:00:00 7,1 6,6 - - 21 11 - - W 1006,6 17 0,0
19.02.2017 02:00:00 7,7 7,3 - - 21 11 - - W 1006,2 10 0,0
19.02.2017 01:00:00 7,6 7,2 - - 16 9 - - W 1006,0 9 0,0
19.02.2017 00:00:00 7,6 7,3 - - 28 15 - - WSW 1005,8 10 0,2
18.02.2017 23:00:00 7,4 6,9 - - 31 17 50 27 WSW 1005,6 9 0,0
18.02.2017 22:00:00 7,6 6,5 - - 34 18 - - SW 1005,6 10 0,0
18.02.2017 21:00:00 7,6 7,0 - - 29 16 46 25 SW 1005,7 15 0,0
18.02.2017 20:00:00 7,6 6,9 - - 35 19 52 28 SW 1005,8 13 0,0
18.02.2017 19:00:00 7,7 6,7 - - 35 19 48 26 SW 1005,9 16 0,0
18.02.2017 18:00:00 7,7 6,5 - - 37 20 59 32 WSW 1006,0 18 0,2
18.02.2017 17:00:00 8,0 7,2 - - 44 24 68 37 SW 1005,9 11 0,0
18.02.2017 16:00:00 8,2 7,6 - - 29 16 48 26 WSW 1006,6 12 0,0
18.02.2017 15:00:00 8,4 7,9 - - 35 19 52 28 WSW 1006,8 14 0,0
18.02.2017 14:00:00 8,3 8,1 - - 37 20 54 29 WSW 1007,1 15 0,0
18.02.2017 13:00:00 8,5 8,2 - - 35 19 52 28 WSW 1007,2 9 0,0
18.02.2017 12:00:00 8,2 7,9 - - 37 20 50 27 SW 1007,5 12 0,0
18.02.2017 11:00:00 8,1 7,6 - - 35 19 46 25 SSW 1008,2 6 0,8
18.02.2017 10:00:00 8,0 7,4 - - 29 16 - - SSW 1008,6 4,9 0,2
18.02.2017 09:00:00 8,0 7,3 6,2 6,2 28 15 - - S 1009,2 17 0,2
18.02.2017 08:00:00 7,7 7,0 - - 26 14 - - S 1010,2 12 0,0
18.02.2017 07:00:00 7,9 7,0 - - 16 9 - - S 1011,1 22 0,0
18.02.2017 06:00:00 7,7 6,9 - - 16 9 - - SSW 1011,8 18 0,0
18.02.2017 05:00:00 7,6 6,7 - - 22 12 - - SSW 1012,7 21 0,0
18.02.2017 04:00:00 7,2 6,5 - - 24 13 - - S 1013,3 18 0,0
18.02.2017 03:00:00 7,1 6,4 - - 21 11 - - S 1014,4 16 0,0
18.02.2017 02:00:00 7,2 6,6 - - 21 11 - - S 1015,3 14 0,0
18.02.2017 01:00:00 7,2 6,7 - - 22 12 - - SSE 1016,2 14 0,0
18.02.2017 00:00:00 7,2 6,7 - - 18 10 - - SSE 1017,0 13 0,0
17.02.2017 23:00:00 7,1 6,6 - - 18 10 - - S 1018,1 14 0,0
17.02.2017 22:00:00 6,9 6,2 - - 18 10 - - SSE 1018,8 16 0,0
17.02.2017 21:00:00 6,9 6,2 - - 21 11 - - S 1019,1 14 0,0
17.02.2017 20:00:00 6,6 5,8 - - 26 14 - - SSE 1019,5 16 0,0
17.02.2017 19:00:00 6,6 6,0 - - 26 14 - - SSE 1019,9 18 0,0
17.02.2017 18:00:00 6,8 6,1 - - 24 13 - - S 1020,5 14 0,0
17.02.2017 17:00:00 6,8 6,2 - - 21 11 - - S 1020,7 12 0,0
17.02.2017 16:00:00 7,2 6,1 - - 18 10 - - S 1021,1 13 0,0
17.02.2017 15:00:00 8,0 6,4 - - 16 9 - - S 1021,7 21 0,0
17.02.2017 14:00:00 8,0 6,6 - - 16 9 - - SSW 1022,2 17 0,0
17.02.2017 13:00:00 8,2 6,4 - - 18 10 - - SSW 1022,4 17 0,0
17.02.2017 12:00:00 8,3 4,5 - - 13 7 - - S 1022,7 50 0,0
17.02.2017 11:00:00 8,1 5,3 - - 8 4 - - SSW 1022,9 40 0,0
17.02.2017 10:00:00 7,7 5,3 - - 11 6 - - SW 1022,8 45 0,0
17.02.2017 09:00:00 7,3 5,1 6,0 6,0 13 7 - - WSW 1022,8 45 0,0
17.02.2017 08:00:00 7,1 6,4 - - 9 5 - - WSW 1022,3 28 0,0
17.02.2017 07:00:00 7,3 6,7 - - 5 3 - - SSW 1022,0 14 0,0
17.02.2017 06:00:00 7,0 6,3 - - 4 2 - - W 1022,1 15 0,0
17.02.2017 05:00:00 6,2 5,3 - - 2 1 - - W 1021,8 12 0,0
17.02.2017 04:00:00 7,1 6,2 - - 9 5 - - WNW 1022,1 20 0,0
17.02.2017 03:00:00 7,1 6,4 - - 9 5 - - W 1021,9 15 0,0
17.02.2017 02:00:00 6,9 6,1 - - 13 7 - - WNW 1021,6 18 0,0
17.02.2017 01:00:00 6,5 5,5 - - 13 7 - - NW 1020,9 17 0,0
17.02.2017 00:00:00 7,0 6,1 - - 15 8 - - NNW 1020,3 20 0,0
16.02.2017 23:00:00 7,2 6,1 - - 16 9 - - NNW 1020,1 16 0,0
16.02.2017 22:00:00 7,6 6,3 - - 13 7 - - NNW 1019,4 19 0,0
16.02.2017 21:00:00 7,5 6,2 - - 18 10 - - NNW 1018,6 15 0,0
16.02.2017 20:00:00 7,8 6,6 - - 26 14 - - NNW 1017,8 11 0,0
16.02.2017 19:00:00 7,5 6,3 - - 26 14 - - N 1016,8 15 0,0
16.02.2017 18:00:00 7,6 6,6 - - 26 14 - - NNW 1015,7 13 0,0
16.02.2017 17:00:00 7,6 6,4 - - 24 13 - - NNW 1014,4 35 0,0
16.02.2017 16:00:00 7,8 6,7 - - 18 10 - - NNW 1013,3 24 0,0
16.02.2017 15:00:00 8,1 6,7 - - 16 9 - - NNW 1012,3 27 0,0
16.02.2017 14:00:00 8,2 6,8 - - 15 8 - - NW 1011,8 20 0,0
16.02.2017 13:00:00 7,8 6,7 - - 8 4 - - W 1011,6 30 0,0
16.02.2017 12:00:00 8,1 7,3 - - 5 3 - - WSW 1011,6 14 0,0
16.02.2017 11:00:00 7,6 7,0 - - 8 4 - - SSW 1011,4 16 0,0
16.02.2017 10:00:00 7,3 6,7 - - 9 5 - - SSW 1011,4 12 0,0
16.02.2017 09:00:00 7,1 6,6 5,7 6,0 11 6 - - SSW 1011,4 16 0,0
16.02.2017 08:00:00 6,7 6,1 - - 13 7 - - SSW 1011,2 9 0,0
16.02.2017 07:00:00 7,1 6,5 - - 15 8 - - SW 1011,3 13 0,0
16.02.2017 06:00:00 7,1 6,7 - - 13 7 - - SSW 1011,9 9 0,0
16.02.2017 05:00:00 6,9 6,5 - - 13 7 - - S 1012,5 5 0,0
16.02.2017 04:00:00 6,8 6,4 - - 21 11 - - S 1013,1 4,9 0,0
16.02.2017 03:00:00 6,6 6,3 - - 22 12 - - S 1013,7 4,0 0,0
16.02.2017 02:00:00 7,0 6,6 - - 21 11 - - SSE 1014,3 5 0,0
16.02.2017 01:00:00 6,9 6,5 - - 26 14 - - SSE 1015,2 5 0,0
16.02.2017 00:00:00 7,0 6,5 - - 22 12 - - SSE 1015,9 6 0,0
15.02.2017 23:00:00 7,0 6,4 - - 24 13 - - SSE 1016,7 6 0,0
15.02.2017 22:00:00 7,0 6,5 - - 21 11 - - SSE 1017,5 6 0,0
15.02.2017 21:00:00 6,6 6,2 - - 16 9 - - SSE 1018,1 4,7 0,0
15.02.2017 20:00:00 6,7 5,9 - - 21 11 - - SSE 1018,7 7 0,0
15.02.2017 19:00:00 6,4 5,5 - - 13 7 - - SSE 1019,1 10 0,0
15.02.2017 18:00:00 6,2 5,2 - - 15 8 - - SSE 1020,0 8 0,0
15.02.2017 17:00:00 5,8 4,7 - - 13 7 - - SSE 1020,2 8 0,0
15.02.2017 16:00:00 6,3 5,0 - - 13 7 - - S 1020,7 8 0,0
15.02.2017 15:00:00 7,5 5,6 - - 15 8 - - S 1020,9 9 0,0
15.02.2017 14:00:00 7,7 5,9 - - 15 8 - - S 1021,2 10 0,0

tt = temperature
td = dewpoint
tt -20cm = temperature -20cm
tt -100cm = temperature -100cm
ff = wind speed
fx = gusts
dd = wind direction
ppp = reduced air pressure
vv = visibility
rr = precipitation

Next stations